Weather History for Canadian, TX

Change the Weather History Date:

Monday, February 18, 2013

  Actual Average (KPPA) Record (KPPA)
Temperature  
Mean Temperature 40 °F -  
Max Temperature 53 °F 52 °F 85 °F (1970)
Min Temperature 28 °F 25 °F 5 °F (1978)
Degree Days  
Heating Degree Days 24    
Moisture  
Dew Point 23 °F    
Average Humidity 46    
Maximum Humidity 75    
Minimum Humidity 24    
Precipitation  
Precipitation 0.00 in - - ()
Sea Level Pressure  
Sea Level Pressure 29.88 in    
Wind  
Wind Speed 16 mph (NW)    
Max Wind Speed 29 mph    
Max Gust Speed 41 mph    
Visibility 10 miles    
Events      
Averages and records for this station are not official NWS values.
T = Trace of Precipitation, MM = Missing Value Source: NWS Daily Summary

Daily Weather History Graph

Daily Weather History Graph

Search for Another Location

Airport:

Trip Planner

Search our weather history database for the weather conditions in past years. The results will help you decide how hot, cold, wet, or windy it might be!

Date:

Astronomy

Feb. 18, 2013 Rise Set
Actual Time 7:25 AM CST 6:26 PM CST
Civil Twilight 6:58 AM CST 6:52 PM CST
Nautical Twilight 6:29 AM CST 7:22 PM CST
Astronomical Twilight 5:59 AM CST 7:52 PM CST
Moon 12:19 PM CST (2/18) 2:01 AM CST (2/18)
Length of Visible Light 11h 53m
Length of Day
11h 01m
First Quarter, 58% of the Moon is Illuminated
Feb 18
First Quarter
Feb 25
Full
Mar 4
Last Quarter
Mar 11
New
Mar 19
First Quarter

Hourly Weather History & Observations

Time (CST) Temp. Windchill Dew Point Humidity Pressure Visibility Wind Dir Wind Speed Gust Speed Precip Events Conditions
12:15 AM 53.6 °F - 19.4 °F 26% 29.57 in 10.0 mi SSW 25.3 mph 33.4 mph N/A   Clear
12:35 AM 53.6 °F - 19.4 °F 26% 29.58 in 10.0 mi SSW 23.0 mph 32.2 mph N/A   Clear
12:55 AM 51.8 °F - 21.2 °F 30% 29.57 in 10.0 mi SSW 21.9 mph 27.6 mph N/A   Clear
1:15 AM 51.8 °F - 21.2 °F 30% 29.56 in 10.0 mi South 23.0 mph - N/A   Clear
1:35 AM 50.0 °F - 21.2 °F 32% 29.57 in 10.0 mi SSW 16.1 mph 25.3 mph N/A   Clear
1:55 AM 50.0 °F - 21.2 °F 32% 29.56 in 10.0 mi SSW 13.8 mph - N/A   Clear
2:35 AM 44.6 °F 43.1 °F 23.0 °F 43% 29.58 in 10.0 mi SW 3.5 mph - N/A   Clear
2:55 AM 42.8 °F - 23.0 °F 46% 29.58 in 10.0 mi Calm Calm - N/A   Clear
3:15 AM 42.8 °F - 23.0 °F 46% 29.58 in 10.0 mi Calm Calm - N/A   Clear
3:35 AM 41.0 °F 37.1 °F 23.0 °F 49% 29.60 in 10.0 mi SW 5.8 mph - N/A   Clear
4:15 AM 44.6 °F 39.7 °F 19.4 °F 37% 29.61 in 10.0 mi WNW 9.2 mph - N/A   Clear
4:35 AM 42.8 °F 36.6 °F 21.2 °F 42% 29.62 in 10.0 mi NW 11.5 mph 18.4 mph N/A   Clear
4:55 AM 42.8 °F 36.6 °F 23.0 °F 46% 29.64 in 10.0 mi NNW 11.5 mph 19.6 mph N/A   Clear
5:15 AM 42.8 °F 36.6 °F 24.8 °F 49% 29.66 in 10.0 mi NNW 11.5 mph 18.4 mph N/A   Clear
5:35 AM 42.8 °F 35.4 °F 28.4 °F 57% 29.66 in 10.0 mi North 15.0 mph - N/A   Clear
5:55 AM 41.0 °F 33.1 °F 28.4 °F 61% 29.68 in 10.0 mi NNW 15.0 mph 18.4 mph N/A   Clear
6:15 AM 41.0 °F 34.3 °F 30.2 °F 65% 29.70 in 10.0 mi NNW 11.5 mph 18.4 mph N/A   Clear
6:35 AM 41.0 °F 33.5 °F 30.2 °F 65% 29.71 in 10.0 mi NNW 13.8 mph 21.9 mph N/A   Clear
6:55 AM 41.0 °F 33.9 °F 30.2 °F 65% 29.73 in 10.0 mi NNW 12.7 mph 25.3 mph N/A   Clear
7:15 AM 39.2 °F 29.8 °F 28.4 °F 65% 29.76 in 10.0 mi NNW 18.4 mph 23.0 mph N/A   Clear
7:35 AM 39.2 °F 30.2 °F 28.4 °F 65% 29.78 in 10.0 mi NNW 17.3 mph 23.0 mph N/A   Clear
7:55 AM 39.2 °F 30.2 °F 28.4 °F 65% 29.79 in 10.0 mi NNW 17.3 mph - N/A   Clear
8:15 AM 39.2 °F 30.5 °F 28.4 °F 65% 29.81 in 10.0 mi NNW 16.1 mph 21.9 mph N/A   Clear
8:35 AM 41.0 °F 31.6 °F 28.4 °F 61% 29.83 in 10.0 mi NNW 20.7 mph 26.5 mph N/A   Clear
8:55 AM 41.0 °F 32.2 °F 28.4 °F 61% 29.84 in 10.0 mi NNW 18.4 mph 31.1 mph N/A   Clear
9:15 AM 42.8 °F 33.3 °F 28.4 °F 57% 29.86 in 10.0 mi North 24.2 mph 32.2 mph N/A   Clear
9:35 AM 42.8 °F 33.3 °F 28.4 °F 57% 29.88 in 10.0 mi North 24.2 mph 32.2 mph N/A   Clear
9:55 AM 42.8 °F 32.9 °F 28.4 °F 57% 29.90 in 10.0 mi NNW 26.5 mph 36.8 mph N/A   Clear
10:15 AM 44.6 °F 35.1 °F 26.6 °F 49% 29.90 in 10.0 mi NNW 27.6 mph 34.5 mph N/A   Clear
10:35 AM 46.4 °F 38.1 °F 26.6 °F 46% 29.91 in 10.0 mi North 24.2 mph 35.7 mph N/A   Scattered Clouds
10:55 AM 44.6 °F 34.9 °F 26.6 °F 49% 29.92 in 10.0 mi NNW 28.8 mph 38.0 mph N/A   Mostly Cloudy
11:15 AM 46.4 °F 37.5 °F 24.8 °F 43% 29.93 in 10.0 mi North 27.6 mph 41.4 mph N/A   Scattered Clouds
11:35 AM 46.4 °F 37.5 °F 26.6 °F 46% 29.95 in 10.0 mi NNW 27.6 mph 33.4 mph N/A   Scattered Clouds
11:55 AM 48.2 °F - 24.8 °F 40% 29.95 in 10.0 mi NNW 28.8 mph 34.5 mph N/A   Clear
12:15 PM 48.2 °F - 24.8 °F 40% 29.95 in 10.0 mi NNW 26.5 mph 36.8 mph N/A   Clear
12:35 PM 50.0 °F - 26.6 °F 40% 29.95 in 10.0 mi North 23.0 mph 34.5 mph N/A   Clear
12:55 PM 50.0 °F - 24.8 °F 37% 29.95 in 10.0 mi North 23.0 mph 32.2 mph N/A   Clear
1:15 PM 50.0 °F - 23.0 °F 35% 29.95 in 10.0 mi North 26.5 mph 33.4 mph N/A   Clear
1:35 PM 50.0 °F - 23.0 °F 35% 29.96 in 10.0 mi NNW 21.9 mph 32.2 mph N/A   Scattered Clouds
1:55 PM 50.0 °F - 21.2 °F 32% 29.96 in 10.0 mi NNW 24.2 mph 28.8 mph N/A   Mostly Cloudy
2:15 PM 50.0 °F - 21.2 °F 32% 29.96 in 10.0 mi North 21.9 mph 26.5 mph N/A   Overcast
2:35 PM 50.0 °F - 21.2 °F 32% 29.96 in 10.0 mi NNW 18.4 mph 29.9 mph N/A   Scattered Clouds
2:55 PM 51.8 °F - 21.2 °F 30% 29.96 in 10.0 mi NNW 20.7 mph 31.1 mph N/A   Scattered Clouds
3:15 PM 51.8 °F - 21.2 °F 30% 29.96 in 10.0 mi North 18.4 mph 27.6 mph N/A   Clear
3:35 PM 51.8 °F - 17.6 °F 26% 29.97 in 10.0 mi NNW 23.0 mph 31.1 mph N/A   Scattered Clouds
3:55 PM 51.8 °F - 17.6 °F 26% 29.97 in 10.0 mi NNW 23.0 mph 28.8 mph N/A   Clear
4:15 PM 51.8 °F - 17.6 °F 26% 29.98 in 10.0 mi NNW 19.6 mph 27.6 mph N/A   Clear
4:35 PM 51.8 °F - 17.6 °F 26% 29.99 in 10.0 mi NNW 16.1 mph 24.2 mph N/A   Clear
4:55 PM 51.8 °F - 15.8 °F 24% 30.00 in 10.0 mi NNW 16.1 mph 24.2 mph N/A   Clear
5:15 PM 51.8 °F - 17.6 °F 26% 30.00 in 10.0 mi NNW 18.4 mph 25.3 mph N/A   Clear
5:35 PM 50.0 °F - 17.6 °F 28% 30.01 in 10.0 mi NNW 16.1 mph 19.6 mph N/A   Clear
5:55 PM 50.0 °F - 17.6 °F 28% 30.02 in 10.0 mi NNW 16.1 mph 23.0 mph N/A   Clear
6:15 PM 48.2 °F - 19.4 °F 32% 30.02 in 10.0 mi North 9.2 mph - N/A   Clear
6:35 PM 46.4 °F 42.4 °F 19.4 °F 34% 30.04 in 10.0 mi North 8.1 mph - N/A   Clear
6:55 PM 44.6 °F - 19.4 °F 37% 30.05 in 10.0 mi Calm Calm - N/A   Clear
7:15 PM 44.6 °F - 19.4 °F 37% 30.05 in 10.0 mi Calm Calm - N/A   Clear
7:35 PM 42.8 °F - 19.4 °F 39% 30.06 in 10.0 mi Calm Calm - N/A   Clear
7:55 PM 41.0 °F - 19.4 °F 42% 30.07 in 10.0 mi Calm Calm - N/A   Clear
8:15 PM 39.2 °F - 19.4 °F 45% 30.07 in 10.0 mi Calm Calm - N/A   Clear
8:35 PM 35.6 °F - 21.2 °F 56% 30.08 in 10.0 mi Calm Calm - N/A   Clear
8:55 PM 33.8 °F - 21.2 °F 60% 30.09 in 10.0 mi Calm Calm - N/A   Clear
9:15 PM 30.2 °F 26.7 °F 23.0 °F 75% 30.10 in 10.0 mi SW 3.5 mph - N/A   Clear
9:55 PM 30.2 °F - 21.2 °F 69% 30.12 in 10.0 mi Calm Calm - N/A   Clear
10:15 PM 30.2 °F 24.3 °F 23.0 °F 75% 30.13 in 10.0 mi WSW 5.8 mph - N/A   Clear
10:35 PM 30.2 °F - 21.2 °F 69% 30.13 in 10.0 mi Calm Calm - N/A   Clear
10:55 PM 32.0 °F - 21.2 °F 64% 30.13 in 10.0 mi Calm Calm - N/A   Clear
11:15 PM 28.4 °F 24.6 °F 21.2 °F 74% 30.13 in 10.0 mi WSW 3.5 mph - N/A   Clear
11:35 PM 28.4 °F - 21.2 °F 74% 30.13 in 10.0 mi Calm Calm - N/A   Clear
11:55 PM 28.4 °F 23.3 °F 21.2 °F 74% 30.14 in 10.0 mi SW 4.6 mph - N/A   Clear